When you browse on this site, cookies collect data to enhance your experience and personalize the content and advertising you see.
Visit our Privacy Policy to learn more. By continuing to use the site, you agree to this use of cookies and data.
  • In Latvia
  • List of Countries
  • For 7 days
  • Water Temperature
  • Satellite Maps
  • Weather Map
  • Weather Widgets
  • user-avatar
    Login

    Hourly Weather Ahtopol

    Today, 24 May, Friday

    Time Temperature Precipitation Wind Pressure Humidity
    00:00 +18°C° 0.1 mm 1 mps 756 mmHg 81%
    01:00 +18°C° 0.1 mm 1 mps 756 mmHg 83%
    02:00 +17°C° 0.1 mm 2 mps 755 mmHg 86%
    03:00 +16°C° 0.1 mm 2 mps 755 mmHg 87%
    04:00 +16°C° 0.1 mm 2 mps 755 mmHg 88%
    05:00 +14°C° 0.1 mm 3 mps 755 mmHg 90%
    06:00 +16°C° 0.4 mm 3 mps 755 mmHg 87%
    07:00 +17°C° 0.4 mm 3 mps 755 mmHg 84%
    08:00 +18°C° 0.4 mm 3 mps 755 mmHg 81%
    09:00 +19°C° 0.2 mm 3 mps 755 mmHg 77%
    10:00 +20°C° 0.2 mm 3 mps 755 mmHg 74%
    11:00 +20°C° 0.2 mm 3 mps 755 mmHg 71%
    12:00 +21°C° 0.3 mm 2 mps 755 mmHg 69%
    13:00 +23°C° 0.3 mm 2 mps 755 mmHg 67%
    14:00 +23°C° 0.3 mm 2 mps 755 mmHg 65%
    15:00 +23°C° 0.7 mm 2 mps 755 mmHg 70%
    16:00 +22°C° 0.7 mm 1 mps 754 mmHg 74%
    17:00 +21°C° 0.7 mm 1 mps 754 mmHg 78%
    18:00 +20°C° 0.3 mm 1 mps 754 mmHg 82%
    19:00 +19°C° 0.3 mm 1 mps 754 mmHg 85%
    20:00 +18°C° 0.3 mm 1 mps 754 mmHg 88%
    21:00 +17°C° 0 mm 2 mps 754 mmHg 89%
    22:00 +16°C° 0 mm 2 mps 755 mmHg 89%
    23:00 +16°C° 0 mm 2 mps 755 mmHg 89%

    Tomorrow, 25 May, Saturday

    Time Temperature Precipitation Wind Pressure Humidity
    00:00 +16°C° 0.1 mm 2 mps 755 mmHg 90%
    01:00 +14°C° 0.1 mm 3 mps 755 mmHg 90%
    02:00 +14°C° 0.1 mm 3 mps 755 mmHg 91%
    03:00 +14°C° 0 mm 3 mps 755 mmHg 91%
    04:00 +13°C° 0 mm 3 mps 755 mmHg 91%
    05:00 +13°C° 0 mm 3 mps 755 mmHg 90%
    06:00 +16°C° 0 mm 3 mps 756 mmHg 85%
    07:00 +18°C° 0 mm 4 mps 756 mmHg 79%
    08:00 +19°C° 0 mm 4 mps 756 mmHg 74%
    09:00 +21°C° 0 mm 4 mps 756 mmHg 68%
    10:00 +22°C° 0 mm 4 mps 756 mmHg 62%
    11:00 +25°C° 0 mm 4 mps 757 mmHg 56%
    12:00 +25°C° 0.4 mm 4 mps 756 mmHg 56%
    13:00 +26°C° 0.4 mm 3 mps 756 mmHg 57%
    14:00 +26°C° 0.4 mm 3 mps 756 mmHg 57%
    15:00 +26°C° 0.7 mm 3 mps 756 mmHg 59%
    16:00 +25°C° 0.7 mm 3 mps 756 mmHg 62%
    17:00 +25°C° 0.7 mm 3 mps 756 mmHg 64%
    18:00 +23°C° 0 mm 2 mps 756 mmHg 70%
    19:00 +20°C° 0 mm 2 mps 756 mmHg 75%
    20:00 +20°C° 0 mm 1 mps 757 mmHg 80%
    21:00 +19°C° 0 mm 1 mps 757 mmHg 81%
    22:00 +18°C° 0 mm 2 mps 757 mmHg 83%
    23:00 +17°C° 0 mm 2 mps 757 mmHg 85%

    Day after tomorrow, 26 May, Sunday

    Time Temperature Precipitation Wind Pressure Humidity
    00:00 +17°C° 0 mm 2 mps 758 mmHg 86%
    01:00 +16°C° 0 mm 2 mps 758 mmHg 86%
    02:00 +16°C° 0 mm 2 mps 758 mmHg 86%
    03:00 +16°C° 0 mm 2 mps 758 mmHg 86%
    04:00 +16°C° 0 mm 2 mps 758 mmHg 86%
    05:00 +15°C° 0 mm 2 mps 758 mmHg 86%
    06:00 +18°C° 0 mm 2 mps 758 mmHg 80%
    07:00 +20°C° 0 mm 2 mps 758 mmHg 74%
    08:00 +23°C° 0 mm 2 mps 759 mmHg 67%
    09:00 +24°C° 0 mm 2 mps 759 mmHg 62%
    10:00 +26°C° 0 mm 1 mps 759 mmHg 57%
    11:00 +27°C° 0 mm 1 mps 759 mmHg 51%
    12:00 +28°C° 0 mm 2 mps 759 mmHg 50%
    13:00 +28°C° 0 mm 2 mps 759 mmHg 48%
    14:00 +29°C° 0 mm 2 mps 759 mmHg 47%
    15:00 +28°C° 0 mm 3 mps 758 mmHg 50%
    16:00 +28°C° 0 mm 3 mps 758 mmHg 54%
    17:00 +27°C° 0 mm 3 mps 758 mmHg 57%
    18:00 +25°C° 0 mm 3 mps 758 mmHg 64%
    19:00 +22°C° 0 mm 3 mps 758 mmHg 71%
    20:00 +20°C° 0 mm 3 mps 758 mmHg 78%
    21:00 +19°C° 0 mm 2 mps 758 mmHg 80%
    22:00 +19°C° 0 mm 2 mps 759 mmHg 83%
    23:00 +18°C° 0 mm 2 mps 759 mmHg 86%

    27 May, Monday

    Time Temperature Precipitation Wind Pressure Humidity
    00:00 +19°C° 0 mm 1 mps 759 mmHg 86%
    01:00 +19°C° 0 mm 1 mps 759 mmHg 86%
    02:00 +18°C° 0 mm 1 mps 758 mmHg 86%
    03:00 +18°C° 0 mm 1 mps 758 mmHg 85%
    04:00 +16°C° 0 mm 0 mps 758 mmHg 84%
    05:00 +16°C° 0 mm 0 mps 758 mmHg 84%
    06:00 +18°C° 0 mm 0 mps 758 mmHg 77%
    07:00 +20°C° 0 mm 0 mps 758 mmHg 70%
    08:00 +22°C° 0 mm 0 mps 759 mmHg 63%
    09:00 +26°C° 0 mm 1 mps 759 mmHg 58%
    10:00 +27°C° 0 mm 2 mps 759 mmHg 53%
    11:00 +28°C° 0 mm 2 mps 759 mmHg 49%
    12:00 +29°C° 0 mm 3 mps 758 mmHg 48%
    13:00 +29°C° 0 mm 4 mps 758 mmHg 47%
    14:00 +29°C° 0 mm 4 mps 758 mmHg 47%
    15:00 +29°C° 0 mm 4 mps 757 mmHg 50%
    16:00 +28°C° 0 mm 4 mps 757 mmHg 53%
    17:00 +27°C° 0 mm 4 mps 757 mmHg 56%
    18:00 +25°C° 0 mm 4 mps 757 mmHg 62%
    19:00 +21°C° 0 mm 3 mps 757 mmHg 68%
    20:00 +19°C° 0 mm 3 mps 757 mmHg 75%
    21:00 +19°C° 0 mm 3 mps 757 mmHg 76%
    22:00 +18°C° 0 mm 2 mps 757 mmHg 77%
    23:00 +18°C° 0 mm 2 mps 757 mmHg 78%

    28 May, Tuesday

    Time Temperature Precipitation Wind Pressure Humidity
    00:00 +18°C° 0 mm 2 mps 757 mmHg 78%
    01:00 +18°C° 0 mm 1 mps 757 mmHg 78%
    02:00 +18°C° 0 mm 1 mps 756 mmHg 78%
    03:00 +18°C° 0 mm 1 mps 756 mmHg 77%
    04:00 +18°C° 0 mm 1 mps 756 mmHg 76%
    05:00 +16°C° 0 mm 1 mps 756 mmHg 75%
    06:00 +20°C° 0 mm 1 mps 756 mmHg 70%
    07:00 +21°C° 0 mm 2 mps 756 mmHg 64%
    08:00 +24°C° 0 mm 2 mps 756 mmHg 59%
    09:00 +26°C° 0 mm 2 mps 756 mmHg 56%
    10:00 +28°C° 0 mm 3 mps 756 mmHg 52%
    11:00 +30°C° 0 mm 3 mps 756 mmHg 49%
    12:00 +30°C° 0 mm 3 mps 755 mmHg 48%
    13:00 +32°C° 0 mm 4 mps 755 mmHg 47%
    14:00 +32°C° 0 mm 4 mps 755 mmHg 46%
    15:00 +32°C° 0 mm 4 mps 754 mmHg 49%
    16:00 +30°C° 0 mm 4 mps 754 mmHg 51%
    17:00 +30°C° 0 mm 3 mps 754 mmHg 53%
    18:00 +27°C° 0 mm 3 mps 754 mmHg 59%
    19:00 +25°C° 0 mm 2 mps 754 mmHg 66%
    20:00 +23°C° 0 mm 2 mps 754 mmHg 72%
    21:00 +21°C° 0 mm 2 mps 754 mmHg 67%
    22:00 +20°C° 0 mm 3 mps 755 mmHg 63%
    23:00 +20°C° 0 mm 3 mps 755 mmHg 59%

    29 May, Wednesday

    Time Temperature Precipitation Wind Pressure Humidity
    00:00 +19°C° 0 mm 3 mps 755 mmHg 63%
    01:00 +18°C° 0 mm 3 mps 755 mmHg 66%
    02:00 +18°C° 0 mm 3 mps 755 mmHg 70%
    03:00 +17°C° 0 mm 3 mps 755 mmHg 74%
    04:00 +17°C° 0 mm 3 mps 756 mmHg 78%
    05:00 +17°C° 0 mm 3 mps 756 mmHg 82%
    06:00 +19°C° 0 mm 3 mps 756 mmHg 76%
    07:00 +21°C° 0 mm 3 mps 756 mmHg 69%
    08:00 +24°C° 0 mm 3 mps 757 mmHg 63%
    09:00 +26°C° 0 mm 3 mps 757 mmHg 58%
    10:00 +28°C° 0 mm 2 mps 757 mmHg 53%
    11:00 +30°C° 0 mm 2 mps 757 mmHg 49%
    12:00 +30°C° 0 mm 2 mps 757 mmHg 46%
    13:00 +31°C° 0 mm 1 mps 757 mmHg 44%
    14:00 +32°C° 0 mm 1 mps 757 mmHg 41%
    15:00 +32°C° 0 mm 1 mps 757 mmHg 43%
    16:00 +31°C° 0 mm 1 mps 757 mmHg 45%
    17:00 +31°C° 0 mm 1 mps 757 mmHg 48%
    18:00 +28°C° 0 mm 2 mps 757 mmHg 54%
    19:00 +26°C° 0 mm 2 mps 757 mmHg 60%
    20:00 +24°C° 0 mm 2 mps 758 mmHg 67%
    21:00 +23°C° 0 mm 1 mps 758 mmHg 69%
    22:00 +23°C° 0 mm 1 mps 758 mmHg 71%
    23:00 +20°C° 0 mm 0 mps 758 mmHg 73%
    Show more